Weather History for K20U - October, 2012

Change the Weather History Date:

Wednesday, October 24, 2012

  Actual Average (KGDV) Record (KGDV)
Temperature  
Mean Temperature 30 °F -  
Max Temperature 35 °F 50 °F 78 °F (2007)
Min Temperature 24 °F 29 °F 19 °F (1997)
Degree Days  
Heating Degree Days 36    
Moisture  
Dew Point 23 °F    
Average Humidity 81    
Maximum Humidity 93    
Minimum Humidity 60    
Precipitation  
Precipitation 0.00 in - - ()
Sea Level Pressure  
Sea Level Pressure 30.03 in    
Wind  
Wind Speed 12 mph (WNW)    
Max Wind Speed 20 mph    
Max Gust Speed 24 mph    
Visibility 10 miles    
Events      
Averages and records for this station are not official NWS values.
T = Trace of Precipitation, MM = Missing Value Source: NWS Daily Summary

Daily Weather History Graph

Daily Weather History Graph

Search for Another Location

Airport or City:

Trip Planner

Search our weather history database for the weather conditions in past years. The results will help you decide how hot, cold, wet, or windy it might be!

Date:

Astronomy

Oct. 24, 2012 Rise Set
Actual Time 7:27 AM MDT 5:51 PM MDT
Civil Twilight 6:56 AM MDT 6:23 PM MDT
Nautical Twilight 6:20 AM MDT 6:58 PM MDT
Astronomical Twilight 5:45 AM MDT 7:33 PM MDT
Moon 3:24 PM MDT (10/24) 2:07 AM MDT (10/24)
Length of Visible Light 11h 26m
Length of Day
10h 24m
Waxing Gibbous, 76% of the Moon is Illuminated
Oct 24
Waxing Gibbous
Oct 29
Full
Nov 6
Last Quarter
Nov 13
New
Nov 20
First Quarter

Hourly Weather History & Observations

Time (MDT) Temp. Windchill Dew Point Humidity Pressure Visibility Wind Dir Wind Speed Gust Speed Precip Events Conditions
12:35 AM 26.6 °F 16.8 °F 24.8 °F 93% 29.92 in 10.0 mi NW 10.4 mph - N/A   Unknown
12:55 AM 26.6 °F 18.2 °F 24.8 °F 93% 29.93 in 10.0 mi NNW 8.1 mph - N/A   Clear
1:15 AM 26.6 °F 19.1 °F 24.8 °F 93% 29.94 in 10.0 mi NNW 6.9 mph - N/A   Partly Cloudy
1:35 AM 26.6 °F 17.5 °F 24.8 °F 93% 29.95 in 10.0 mi NW 9.2 mph - N/A   Scattered Clouds
1:55 AM 26.6 °F 17.5 °F 24.8 °F 93% 29.96 in 10.0 mi WNW 9.2 mph - N/A   Mostly Cloudy
2:15 AM 26.6 °F 17.5 °F 23.0 °F 86% 29.96 in 10.0 mi NW 9.2 mph - N/A   Mostly Cloudy
2:35 AM 26.6 °F 16.8 °F 24.8 °F 93% 29.96 in 10.0 mi NW 10.4 mph - N/A   Overcast
2:55 AM 26.6 °F 17.5 °F 24.8 °F 93% 29.96 in 10.0 mi NW 9.2 mph - N/A   Overcast
3:15 AM 26.6 °F 16.2 °F 24.8 °F 93% 29.96 in 10.0 mi NW 11.5 mph - N/A   Overcast
3:35 AM 26.6 °F 16.8 °F 24.8 °F 93% 29.98 in 10.0 mi WNW 10.4 mph - N/A   Overcast
3:55 AM 26.6 °F 17.5 °F 24.8 °F 93% 29.98 in 10.0 mi WNW 9.2 mph - N/A   Overcast
4:15 AM 26.6 °F 17.5 °F 24.8 °F 93% 29.98 in 10.0 mi WNW 9.2 mph - N/A   Overcast
4:35 AM 26.6 °F 14.7 °F 24.8 °F 93% 29.97 in 10.0 mi WNW 15.0 mph 18.4 mph N/A   Overcast
4:55 AM 26.6 °F 16.2 °F 24.8 °F 93% 29.97 in 10.0 mi WNW 11.5 mph - N/A   Overcast
5:15 AM 26.6 °F 15.2 °F 24.8 °F 93% 29.98 in 10.0 mi WNW 13.8 mph 19.6 mph N/A   Overcast
5:35 AM 26.6 °F 13.8 °F 23.0 °F 86% 29.99 in 10.0 mi WNW 17.3 mph 21.9 mph N/A   Overcast
5:55 AM 26.6 °F 15.7 °F 23.0 °F 86% 30.00 in 10.0 mi WNW 12.7 mph - N/A   Mostly Cloudy
6:15 AM 26.6 °F 15.7 °F 23.0 °F 86% 30.01 in 10.0 mi WNW 12.7 mph - N/A   Mostly Cloudy
6:35 AM 26.6 °F 15.2 °F 23.0 °F 86% 30.01 in 10.0 mi NW 13.8 mph 21.9 mph N/A   Overcast
6:55 AM 26.6 °F 14.3 °F 23.0 °F 86% 30.01 in 10.0 mi WNW 16.1 mph - N/A   Overcast
7:15 AM 26.6 °F 15.2 °F 23.0 °F 86% 30.01 in 10.0 mi WNW 13.8 mph 21.9 mph N/A   Mostly Cloudy
7:55 AM 24.8 °F 13.4 °F 23.0 °F 93% 30.02 in 10.0 mi West 12.7 mph 17.3 mph N/A   Mostly Cloudy
8:15 AM 24.8 °F 15.3 °F 23.0 °F 93% 30.03 in 10.0 mi West 9.2 mph - N/A   Scattered Clouds
8:35 AM 26.6 °F 16.2 °F 23.0 °F 86% 30.03 in 10.0 mi WNW 11.5 mph - N/A   Partly Cloudy
8:55 AM 26.6 °F 13.8 °F 21.2 °F 80% 30.03 in 10.0 mi WNW 17.3 mph - N/A   Clear
9:15 AM 26.6 °F 15.2 °F 21.2 °F 80% 30.03 in 10.0 mi WNW 13.8 mph 18.4 mph N/A   Partly Cloudy
9:35 AM 26.6 °F 15.2 °F 21.2 °F 80% 30.04 in 10.0 mi WNW 13.8 mph - N/A   Partly Cloudy
10:15 AM 26.6 °F 13.8 °F 21.2 °F 80% 30.05 in 10.0 mi WNW 17.3 mph 23.0 mph N/A   Mostly Cloudy
10:35 AM 26.6 °F 13.8 °F 21.2 °F 80% 30.05 in 10.0 mi WNW 17.3 mph 21.9 mph N/A   Mostly Cloudy
10:55 AM 28.4 °F 16.6 °F 21.2 °F 74% 30.05 in 10.0 mi WNW 16.1 mph - N/A   Overcast
11:15 AM 28.4 °F 15.4 °F 21.2 °F 74% 30.05 in 10.0 mi WNW 19.6 mph 23.0 mph N/A   Overcast
11:35 AM 28.4 °F 18.0 °F 23.0 °F 80% 30.05 in 10.0 mi WNW 12.7 mph - N/A   Overcast
11:55 AM 28.4 °F 17.0 °F 23.0 °F 80% 30.04 in 10.0 mi WNW 15.0 mph - N/A   Overcast
12:15 PM 30.2 °F 20.8 °F 23.0 °F 75% 30.04 in 10.0 mi West 11.5 mph - N/A   Overcast
12:35 PM 30.2 °F 19.8 °F 23.0 °F 75% 30.04 in 10.0 mi WNW 13.8 mph 17.3 mph N/A   Unknown
12:55 PM 32.0 °F 22.5 °F 23.0 °F 69% 30.04 in 10.0 mi WNW 12.7 mph 20.7 mph N/A   Mostly Cloudy
1:15 PM 32.0 °F 21.6 °F 23.0 °F 69% 30.03 in 10.0 mi WNW 15.0 mph - N/A   Mostly Cloudy
1:35 PM 32.0 °F 22.1 °F 23.0 °F 69% 30.03 in 10.0 mi WNW 13.8 mph 19.6 mph N/A   Scattered Clouds
1:55 PM 32.0 °F 21.6 °F 23.0 °F 69% 30.03 in 10.0 mi WNW 15.0 mph 19.6 mph N/A   Partly Cloudy
2:15 PM 33.8 °F 23.5 °F 23.0 °F 65% 30.02 in 10.0 mi WNW 16.1 mph 20.7 mph N/A   Partly Cloudy
2:35 PM 35.6 °F 26.2 °F 23.0 °F 60% 30.02 in 10.0 mi NW 15.0 mph 20.7 mph N/A   Partly Cloudy
3:15 PM 35.6 °F 25.5 °F 23.0 °F 60% 30.02 in 10.0 mi WNW 17.3 mph 20.7 mph N/A   Partly Cloudy
3:35 PM 35.6 °F 26.6 °F 23.0 °F 60% 30.03 in 10.0 mi WNW 13.8 mph - N/A   Partly Cloudy
3:55 PM 35.6 °F 26.2 °F 23.0 °F 60% 30.03 in 10.0 mi WNW 15.0 mph 20.7 mph N/A   Partly Cloudy
4:15 PM 35.6 °F 26.2 °F 23.0 °F 60% 30.03 in 10.0 mi WNW 15.0 mph - N/A   Partly Cloudy
4:35 PM 35.6 °F 25.2 °F 23.0 °F 60% 30.04 in 10.0 mi WNW 18.4 mph 24.2 mph N/A   Clear
4:55 PM 33.8 °F 23.2 °F 23.0 °F 65% 30.04 in 10.0 mi NW 17.3 mph 21.9 mph N/A   Clear
5:15 PM 32.0 °F 21.2 °F 23.0 °F 69% 30.05 in 10.0 mi WNW 16.1 mph - N/A   Partly Cloudy
5:35 PM 32.0 °F 23.6 °F 23.0 °F 69% 30.07 in 10.0 mi WNW 10.4 mph - N/A   Partly Cloudy
5:55 PM 30.2 °F 21.9 °F 23.0 °F 75% 30.07 in 10.0 mi WNW 9.2 mph - N/A   Partly Cloudy
6:15 PM 28.4 °F 19.7 °F 23.0 °F 80% 30.08 in 10.0 mi NW 9.2 mph - N/A   Clear
6:55 PM 28.4 °F 19.7 °F 23.0 °F 80% 30.09 in 10.0 mi NW 9.2 mph - N/A   Clear
7:15 PM 28.4 °F 19.1 °F 23.0 °F 80% 30.10 in 10.0 mi NW 10.4 mph - N/A   Clear
7:35 PM 26.6 °F 16.2 °F 23.0 °F 86% 30.10 in 10.0 mi NW 11.5 mph - N/A   Clear
7:55 PM 26.6 °F 17.5 °F 23.0 °F 86% 30.10 in 10.0 mi NW 9.2 mph - N/A   Clear
8:15 PM 26.6 °F 20.0 °F 23.0 °F 86% 30.10 in 10.0 mi NW 5.8 mph - N/A   Clear
8:55 PM 26.6 °F 17.5 °F 23.0 °F 86% 30.10 in 10.0 mi WNW 9.2 mph - N/A   Clear
9:15 PM 26.6 °F 15.7 °F 23.0 °F 86% 30.10 in 10.0 mi WNW 12.7 mph - N/A   Clear
9:35 PM 26.6 °F 16.8 °F 23.0 °F 86% 30.10 in 10.0 mi WNW 10.4 mph - N/A   Clear
9:55 PM 26.6 °F 16.8 °F 23.0 °F 86% 30.11 in 10.0 mi WNW 10.4 mph - N/A   Partly Cloudy
10:15 PM 26.6 °F 16.2 °F 23.0 °F 86% 30.11 in 10.0 mi NW 11.5 mph - N/A   Scattered Clouds
10:35 PM 26.6 °F 17.5 °F 23.0 °F 86% 30.12 in 10.0 mi NW 9.2 mph - N/A   Mostly Cloudy
10:55 PM 26.6 °F 16.8 °F 23.0 °F 86% 30.12 in 10.0 mi NW 10.4 mph - N/A   Overcast
11:15 PM 26.6 °F 15.2 °F 23.0 °F 86% 30.12 in 10.0 mi NW 13.8 mph 21.9 mph N/A   Overcast
11:35 PM 26.6 °F 14.3 °F 23.0 °F 86% 30.12 in 10.0 mi NW 16.1 mph 23.0 mph N/A   Overcast
11:55 PM 26.6 °F 16.2 °F 23.0 °F 86% 30.13 in 10.0 mi WNW 11.5 mph - N/A   Overcast